Simultaneous Nadir Overpasses (SNOs) Predictions

Prediction of SNOs between GOES-17 and METOP-A Satellite Orbit:

Table of predicted SNOs for the next 14.0 days since TLE Epoch: 9/5/2020
Index Date Time (GOES-17) GOES-17 Lat,Lon METOP-A Lat,Lon Distance(km) Time Diff (sec)
1 09/05/2020 05:50:43 0.03,-137.17 -0.49,-139.47 262.99 80
2 09/06/2020 05:32:44 0.02,-137.18 0.65,-134.50 306.20 80
3 09/07/2020 17:48:56 -0.03,-137.23 0.37,-139.10 213.15 80
4 09/08/2020 17:30:57 -0.02,-137.24 -0.71,-134.12 355.52 80
5 09/10/2020 05:47:18 0.03,-137.24 -0.31,-138.75 172.46 80
6 09/11/2020 05:29:19 0.02,-137.25 0.77,-133.77 395.67 80
7 09/12/2020 17:45:32 -0.03,-137.27 0.19,-138.38 125.36 80
8 09/13/2020 17:27:33 -0.03,-137.28 -0.90,-133.40 442.22 80
9 09/15/2020 05:43:54 0.03,-137.26 -0.12,-138.03 87.25 80
10 09/16/2020 05:25:54 0.03,-137.27 0.97,-133.05 480.02 80
11 09/17/2020 17:42:07 -0.03,-137.28 0.05,-137.65 41.95 80
